• Join FlightAware (Why Join?)
  • Login
  • US Flag 
06:31AM EST


 

Airport Tracker/Info


-or-


 

Live Flight TrackerFlight Track Log ✈ AWE2310 ✈ 06-May-2014 ✈ KMIA - KBNA

Flight Track Log - Related Links

Times and Time Zones

All times are in EDT time to prevent confusion due to time zone crossing. See the AWE2310 flight status page for this flight to view local times or setup timezone preferences in your user account.

Time Position Orientation Groundspeed Altitude Reporting Facility
EDT Latitude Longitude Course Direction KTS MPH feet Rate Location/Type
09:44PM 25.8014 -80.2675 322° Northwest 155 178 700  Level Miami Center
09:44PM 25.8031 -80.2556 81° East 160 184 1,200 1,714 Climbing Miami Center
09:45PM 25.8106 -80.1869 83° East 221 254 2,900 2,213 Climbing Miami Center
09:46PM 25.8703 -80.1561 25° Northeast 277 319 5,700 2,164 Climbing Miami Center
09:47PM 25.9214 -80.2289 308° West 303 349 7,300 2,527 Climbing Miami Center
09:49PM 26.3384 -80.8996 322° Northwest  Level FlightAware Approximate
09:53PM 26.3619 -80.7086 328° Northwest 421 484 23,600  Level FlightAware ADS-B (RJTF)
09:54PM 26.4133 -80.7447 328° Northwest 415 478 25,300 2,684 Climbing FlightAware ADS-B (RJTF)
09:55PM 26.4775 -80.7898 328° Northwest 420 483 27,000 1,920 Climbing FlightAware ADS-B (RJTF)
09:55PM 26.5300 -80.8266 328° Northwest 433 498 27,700 1,760 Climbing FlightAware ADS-B (RJTF)
09:56PM 26.6116 -80.8834 328° Northwest 434 499 29,200 2,192 Climbing FlightAware ADS-B (RJTF)
09:57PM 26.7128 -80.9540 327° Northwest 425 489 31,500 1,867 Climbing FlightAware ADS-B (RJTF)
09:57PM 26.7647 -80.9913 327° Northwest 415 478 32,000 400 Climbing FlightAware ADS-B (RJTF)
09:58PM 26.8281 -81.0364 328° Northwest 415 478 32,000  Level FlightAware ADS-B (RJTF)
09:59PM 26.9337 -81.1110 328° Northwest 414 476 32,000  Level FlightAware ADS-B (RJTF)
10:00PM 27.0494 -81.1942 328° Northwest 414 476 32,000  Level Miami Center
10:01PM 27.1472 -81.2622 328° Northwest 414 476 32,000  Level Miami Center
10:03PM 27.2631 -81.3450 328° Northwest 411 473 32,000  Level Miami Center
10:04PM 27.3600 -81.4131 328° Northwest 415 478 32,000  Level Miami Center
10:05PM 27.4619 -81.4869 327° Northwest 415 478 32,000  Level Miami Center
10:06PM 27.5575 -81.5547 328° Northwest 418 481 32,000  Level Miami Center
10:07PM 27.6600 -81.6281 328° Northwest 418 481 32,000  Level Miami Center
10:08PM 27.7633 -81.7014 328° Northwest 418 481 32,000  Level Miami Center
10:09PM 27.8472 -81.7622 327° Northwest 418 481 32,000  Level Miami Center
10:10PM 27.9447 -81.8333 327° Northwest 419 482 32,000  Level Miami Center
10:11PM 28.0444 -81.9036 328° Northwest 419 482 32,000  Level Miami Center
10:11PM 28.1278 -81.9489 334° Northwest 419 482 32,000  Level Jacksonville Center
10:12PM 28.2325 -82.0092 333° Northwest 419 482 32,000  Level Jacksonville Center
10:13PM 28.3372 -82.0694 333° Northwest 419 482 32,000  Level Jacksonville Center
10:14PM 28.4419 -82.1300 333° Northwest 419 482 32,000  Level Jacksonville Center
10:15PM 28.5486 -82.1883 334° Northwest 419 482 32,000 -50 Level Jacksonville Center
10:16PM 28.6514 -82.2514 332° Northwest 419 482 31,900  Descending Jacksonville Center
10:17PM 28.7558 -82.3122 333° Northwest 414 476 32,000 50 Climbing Jacksonville Center
10:18PM 28.8606 -82.3733 333° Northwest 414 476 32,000  Level Jacksonville Center
10:19PM 28.9650 -82.4322 334° Northwest 414 476 32,000  Level Jacksonville Center
10:20PM 29.0739 -82.4933 334° Northwest 414 476 32,000  Level Jacksonville Center
10:21PM 29.1783 -82.5572 332° Northwest 414 476 32,000  Level Jacksonville Center
10:22PM 29.2850 -82.6164 334° Northwest 414 476 32,000 -50 Level Jacksonville Center
10:23PM 29.3917 -82.6806 332° Northwest 419 482 31,900 -50 Descending Jacksonville Center
10:24PM 29.4981 -82.7422 333° Northwest 419 482 31,900 50 Level Jacksonville Center
10:25PM 29.5942 -82.8019 332° Northwest 430 495 32,000 50 Climbing Jacksonville Center
10:26PM 29.7028 -82.8664 333° Northwest 430 495 32,000  Level Jacksonville Center
10:27PM 29.8092 -82.9286 333° Northwest 430 495 32,000  Level Jacksonville Center
10:28PM 29.9158 -82.9908 333° Northwest 430 495 32,000 -50 Level Jacksonville Center
10:29PM 30.0367 -83.0581 334° Northwest 430 495 31,900  Descending Jacksonville Center
10:30PM 30.1411 -83.1208 333° Northwest 430 495 32,000 50 Climbing Jacksonville Center
10:31PM 30.2475 -83.1858 332° Northwest 430 495 32,000  Level Jacksonville Center
10:32PM 30.3536 -83.2489 333° Northwest 430 495 32,000  Level Jacksonville Center
10:33PM 30.4619 -83.3119 333° Northwest 430 495 32,000  Level Jacksonville Center
10:34PM 30.5683 -83.3775 332° Northwest 430 495 32,000  Level Jacksonville Center
10:35PM 30.6744 -83.4408 333° Northwest 430 495 32,000  Level Jacksonville Center
10:36PM 30.7850 -83.5044 334° Northwest 430 495 32,000  Level Jacksonville Center
10:37PM 30.8889 -83.5728 331° Northwest 430 495 32,000  Level Jacksonville Center
10:38PM 30.9972 -83.6367 333° Northwest 430 495 32,000  Level Jacksonville Center
10:39PM 31.1033 -83.7031 332° Northwest 425 489 32,000  Level Jacksonville Center
10:41PM 31.3250 -83.8394 332° Northwest 437 503 32,000  Level Atlanta Center
10:42PM 31.4292 -83.9050 332° Northwest 437 503 32,000  Level Atlanta Center
10:43PM 31.5419 -83.9633 336° Northwest 437 503 32,000  Level Atlanta Center
10:44PM 31.6611 -83.9925 348° North 437 503 32,000  Level Atlanta Center
10:45PM 31.7925 -84.0217 349° North 437 503 32,000  Level Atlanta Center
10:46PM 31.9136 -84.0461 350° North 437 503 32,000  Level Atlanta Center
10:47PM 32.0325 -84.0756 348° North 432 497 32,000  Level Atlanta Center
10:48PM 32.1558 -84.1025 350° North 432 497 32,000  Level Atlanta Center
10:49PM 32.2767 -84.1297 349° North 437 503 32,000  Level Atlanta Center
10:50PM 32.3956 -84.1544 350° North 437 503 32,000  Level Atlanta Center
10:51PM 32.5167 -84.1842 348° North 437 503 32,000  Level Atlanta Center
10:52PM 32.6356 -84.2114 349° North 432 497 32,000  Level Atlanta Center
10:53PM 32.7589 -84.2364 350° North 432 497 32,000  Level Atlanta Center
10:54PM 32.8797 -84.2639 349° North 432 497 32,000  Level Atlanta Center
10:55PM 32.9986 -84.2964 347° North 432 497 32,000  Level Atlanta Center
10:56PM 33.1239 -84.3192 351° North 432 497 32,000  Level Atlanta Center
10:57PM 33.2428 -84.3517 347° North 437 503 32,000  Level Atlanta Center
10:58PM 33.3514 -84.3744 350° North 437 503 32,000  Level Atlanta Center
11:02PM 34.0741 -84.6109 333° Northwest 433 498 32,000  Level FlightAware ADS-B (KDZJ)
11:02PM 34.1448 -84.6537 333° Northwest 432 497 32,000  Level FlightAware ADS-B (KDZJ)
11:03PM 34.2173 -84.6975 333° Northwest 431 496 32,000  Level FlightAware ADS-B (KDZJ)
11:04PM 34.2876 -84.7403 333° Northwest 432 497 32,000  Level FlightAware ADS-B (KDZJ)
11:04PM 34.3603 -84.7846 333° Northwest 432 497 32,000  Level FlightAware ADS-B (KDZJ)
11:05PM 34.4301 -84.8272 333° Northwest 433 498 32,000  Level FlightAware ADS-B (KDZJ)
11:06PM 34.4904 -84.8639 333° Northwest 433 498 32,000  Level FlightAware ADS-B (KDZJ)
11:06PM 34.5742 -84.9151 333° Northwest 434 499 32,000  Level FlightAware ADS-B (KDZJ)
11:07PM 34.6464 -84.9593 333° Northwest 435 501 32,000  Level FlightAware ADS-B (KDZJ)
11:08PM 34.7115 -84.9994 333° Northwest 435 501 32,000  Level FlightAware ADS-B (KDZJ)
11:08PM 34.7777 -85.0401 333° Northwest 435 501 32,000  Level FlightAware ADS-B (KDZJ)
11:12PM 34.8474 -85.0831 333° Northwest 434 499 32,000 -62 Level FlightAware ADS-B (KMDQ)
11:13PM 35.0025 -85.2060 314° West 426 490 31,700 -397 Descending FlightAware ADS-B (KMDQ)
11:14PM 35.0610 -85.2806 314° West 429 494 31,100 -2,025 Descending FlightAware ADS-B (KMDQ)
11:15PM 35.1183 -85.3536 314° West 431 496 29,000 -3,220 Descending FlightAware ADS-B (KMDQ)
11:15PM 35.1708 -85.4209 314° West 432 497 26,700 -3,225 Descending FlightAware ADS-B (KMDQ)
11:16PM 35.2259 -85.4917 313° West 425 489 24,700 -2,810 Descending FlightAware ADS-B (KMDQ)
11:17PM 35.2798 -85.5610 313° West 420 483 23,000 -2,475 Descending FlightAware ADS-B (KMDQ)
11:17PM 35.3348 -85.6321 313° West 416 479 21,400 -2,325 Descending FlightAware ADS-B (KMDQ)
11:18PM 35.3848 -85.6967 313° West 412 474 19,900 -2,354 Descending FlightAware ADS-B (KMDQ)
11:19PM 35.4308 -85.7566 313° West 404 465 18,300 -2,296 Descending FlightAware ADS-B (KMDQ)
11:19PM 35.4899 -85.8334 313° West 403 464 16,800 -2,296 Descending FlightAware ADS-B (KMDQ)
11:20PM 35.5411 -85.8997 314° West 398 458 15,200 -2,325 Descending FlightAware ADS-B (KMDQ)
11:21PM 35.5912 -85.9648 313° West 391 450 13,700 -2,260 Descending FlightAware ADS-B (KMDQ)
11:21PM 35.6373 -86.0251 313° West 382 440 12,300 -2,100 Descending FlightAware ADS-B (KMDQ)
11:22PM 35.6876 -86.0910 313° West 364 419 10,900 -1,301 Descending FlightAware ADS-B (KMDQ)
11:23PM 35.7302 -86.1472 313° West 323 372 10,500 -623 Descending FlightAware ADS-B (KMDQ)
11:23PM 35.7659 -86.1940 313° West 292 336 10,100 -857 Descending FlightAware ADS-B (KMDQ)
11:24PM 35.7955 -86.2328 313° West 280 322 9,500 -1,241 Descending FlightAware ADS-B (KMDQ)
11:25PM 35.8667 -86.3167 313° West 266 306 7,700 -1,385 Descending Nashville TRACON
11:26PM 35.9167 -86.3833 313° West 268 308 6,200 -1,286 Descending Nashville TRACON
11:27PM 35.9656 -86.4589 309° West 270 311 5,000 -563 Descending Memphis Center
11:28PM 36.0136 -86.5214 314° West 255 293 5,000  Level Memphis Center
11:29PM 36.0581 -86.5778 314° West 233 268 5,000 -344 Level Memphis Center
11:30PM 36.1258 -86.5586 13° North 248 285 4,300 -1,033 Descending Memphis Center
11:31PM 36.1897 -86.5533 North 243 280 2,900 -1,033 Descending Memphis Center
11:32PM 36.1986 -86.6167 280° West 198 228 2,200 -787 Descending Memphis Center
11:33PM 36.1672 -86.6453 216° Southwest 154 177 1,300 -738 Descending Memphis Center
11:34PM 36.1294 -86.6606 198° South 137 158 700 -590 Descending Memphis Center